Location: Le Broscinq
(44.4500°N, 6.3333°E)
Time: 07:18:36
(UTC+00:00)

Daily predictions for brighter satellites

Satellite Brightness Start Highest point End
(mag) Time Altitude Azimuth Time Altitude Azimuth Time Altitude Azimuth
Cosmos 1515 Rocket 3.7 19:16:14 10° N 19:20:43 87° W 19:25:11 10° S
Cosmos 389 Rocket 3.7 19:18:01 10° NNE 19:20:54 24° ENE 19:23:48 10° SE
SPOT 3 Rocket 4.0 19:16:10 10° SE 19:21:07 46° ENE 19:26:05 10° N
Cosmos 2251 Rocket 3.5 19:17:14 10° SSW 19:22:26 75° ESE 19:27:45 10° NNE
Cosmos 1812 3.9 19:19:37 10° NNE 19:22:51 25° ENE 19:26:03 10° SE
Cosmos 1727 Rocket 4.2 19:16:51 10° N 19:23:09 60° ENE 19:29:24 10° SSE
Cosmos 1656 3.9 19:22:18 10° NNW 19:27:40 53° ENE 19:33:04 10° SE
Cosmos 1633 3.2 19:26:45 10° SSW 19:30:14 58° W 19:33:44 10° N
Resurs 01 Rocket 2.3 19:28:10 10° SE 19:32:14 37° ENE 19:36:19 10° N
Cosmos 972 Rocket 3.9 19:29:15 10° NNW 19:34:16 72° ENE 19:39:09 10° SSE
Cosmos 1441 Rocket 3.8 19:34:00 10° SSE 19:37:28 35° E 19:40:56 10° NNE
Cosmos 614 Rocket 4.2 19:36:05 10° S 19:40:59 46° ESE 19:45:57 10° NNE
Cosmos 1900 4.4 19:39:19 10° SSW 19:44:15 89° ESE 19:49:18 10° NNE
MONITOR-E 4.2 19:44:53 10° S 19:47:12 52° W 19:49:33 10° NNW
USA 267 3.2 19:42:36 10° NE 19:49:06 65° SE 19:55:35 10° SW
IRIDIUM 103 4.3 19:44:03 10° S 19:49:12 65° E 19:54:23 10° N
Cosmos 1821 Rocket 4.1 19:45:23 10° SSE 19:51:20 57° E 19:57:23 10° NNE
COSMOS 2406 3.2 19:47:34 10° SSW 19:53:17 72° ESE 19:59:01 10° NNE
Shenzhou-11 Module 1.5 19:51:57 10° W 19:54:17 55° S 19:55:30 23° ESE
Cosmos 1743 Rocket 4.4 19:50:08 10° SSW 19:54:29 56° W 19:58:55 10° N
CZ-2C R/B 3.7 19:52:31 10° NNE 19:57:10 83° ESE 20:01:42 10° SSW
SL-16 R/B 4.4 19:55:31 10° NNE 19:57:52 12° NE 20:00:14 10° ENE
Intercosmos 25 3.3 19:54:26 10° N 19:58:50 58° ENE 20:01:26 16° SSE
ERS-1 Rocket 4.5 19:56:08 13° ESE 19:59:09 21° ENE 20:02:52 10° NNE
Lacrosse 5 3.9 19:56:32 10° NW 20:00:28 22° NNE 20:04:24 10° ENE
Cosmos 1862 3.4 19:58:40 10° S 20:02:42 84° W 20:06:48 10° N
Sich 1 3.1 19:59:15 10° S 20:03:36 62° E 20:08:01 10° NNE
Cosmos 2369 4.0 19:58:16 10° NNW 20:03:53 53° ENE 20:08:05 18° SE
IRIDIUM 106 4.4 20:02:16 10° S 20:07:29 87° W 20:12:44 10° N
BREEZE-M DEB (TANK) 3.7 20:04:47 10° W 20:07:53 31° NNW 20:09:44 10° NE
Cosmos 1818 3.6 20:03:00 10° NNW 20:08:28 73° NE 20:12:24 19° SE
Cosmos 2082 Rocket 2.6 20:03:15 10° S 20:08:29 39° ESE 20:13:44 10° NE
Cosmos 2278 4.3 20:07:40 10° NNW 20:13:08 43° ENE 20:16:44 20° ESE
Cosmos 2123 Rocket 4.3 20:07:38 10° N 20:13:41 50° ENE 20:18:06 18° SE
Spot 2 Rocket 3.8 20:11:25 19° SE 20:14:53 50° ENE 20:19:49 10° N
Cosmos 1000 Rocket 4.5 20:10:54 10° N 20:17:12 86° E 20:23:05 12° S
Cosmos 2322 Rocket 4.3 20:17:25 10° N 20:20:32 15° NE 20:23:39 10° ENE
Cosmos 2239 Rocket 4.4 20:14:30 10° S 20:20:38 81° E 20:26:48 10° N
Cosmos 1184 Rocket 3.8 20:21:02 27° ESE 20:21:15 28° E 20:24:08 10° NNE
Cosmos 1190 Rocket 4.0 20:16:06 10° S 20:21:16 63° ESE 20:26:31 10° NNE
Meteor 1-4 Rocket 2.9 20:17:56 10° N 20:21:17 42° ENE 20:22:26 31° ESE
Terra 3.4 20:21:08 17° E 20:23:04 21° ENE 20:26:36 10° NNE
USA 234 3.6 20:18:46 17° ESE 20:23:56 62° NNE 20:30:23 10° NW
Cosmos 407 Rocket 3.5 20:18:52 10° SSW 20:24:12 81° ESE 20:29:32 10° NNE
CZ-2C R/B 4.1 20:20:01 10° N 20:24:45 38° WNW 20:29:30 10° SW
Cosmos 1605 Rocket 4.5 20:21:08 20° SE 20:24:51 39° E 20:30:27 10° NNE
Cosmos 1666 Rocket 3.4 20:21:27 13° S 20:25:12 70° E 20:29:32 10° NNE
SL-8 R/B 4.2 20:21:39 10° WNW 20:26:20 50° SSW 20:28:49 25° SSE
Cosmos 1238 Rocket 4.0 20:28:02 18° ENE 20:28:02 18° ENE 20:29:30 10° NE
MetOp-B 4.1 20:25:45 18° SSE 20:29:49 89° E 20:35:14 10° NNW
Meteor 1-27 Rocket 3.9 20:26:12 10° NNW 20:32:09 85° W 20:36:54 17° S
USA 238 DEB 3.9 20:30:55 10° S 20:37:04 43° ESE 20:43:25 10° NE
USA 238 3.9 20:31:03 10° S 20:37:10 43° ESE 20:43:31 10° NE
SPOT 5 3.5 20:35:54 27° ESE 20:37:16 34° ENE 20:41:11 10° N
BREEZE-M DEB (TANK) 3.6 20:34:41 10° WNW 20:37:55 19° SW 20:39:00 16° SSW
SPOT 1/Viking Rocket 3.5 20:39:53 27° SSE 20:42:43 73° ENE 20:47:57 10° N
Cosmos 1980 Rocket 2.3 20:38:43 10° NNW 20:44:24 66° ENE 20:47:05 31° SE
Cosmos 2242 Rocket 4.4 20:42:34 10° N 20:46:37 34° ENE 20:47:29 31° E
SL-4 R/B 1.8 20:43:30 10° WSW 20:47:28 84° NNW 20:51:09 10° ENE
BREEZE-M DEB (TANK) 3.5 20:46:09 10° WNW 20:48:55 47° N 20:56:02 10° ENE
Cosmos 405 Rocket 3.5 20:49:22 32° E 20:49:22 32° E 20:52:22 10° NNE
Genesis I 3.5 20:46:01 10° NNW 20:49:50 52° NE 20:50:44 42° E
Cosmos 1140 Rocket 3.6 20:44:38 10° SSW 20:49:53 79° WNW 20:55:10 10° NNE
ATLAS 5 CENTAUR R/B 3.5 20:47:29 10° NW 20:52:53 37° WSW 20:57:17 17° S
USA 32 3.9 20:53:02 27° S 20:55:54 78° E 21:01:09 10° N
Cosmos 1633 Rocket 3.5 20:55:05 16° SSW 20:58:31 62° W 21:02:55 10° N
Cosmos 1833 Rocket 3.5 20:53:43 10° SW 20:59:11 51° WNW 21:04:41 10° NNE
Cosmos 1697 Rocket 3.2 20:54:35 10° NW 21:00:02 53° WSW 21:03:04 25° S
Cosmos 1867 3.5 21:00:08 10° SSW 21:05:34 87° ESE 21:11:04 10° NE
CENTAUR R/B 2.8 21:04:46 36° SE 21:05:38 38° ESE 21:11:48 10° NE
Meteor 1-18 Rocket 4.3 21:02:37 10° N 21:08:09 58° ENE 21:09:49 42° SE
Okean 1-7 3.7 21:04:17 10° N 21:08:18 36° ENE 21:08:30 36° E
Resurs 01 Rocket 3.7 21:05:23 10° SW 21:08:50 22° W 21:12:18 10° NW
FALCON 9 DEB 3.5 21:09:41 10° WSW 21:13:09 65° NNW 21:15:22 21° NE
Cosmos 1850 Rocket 4.4 21:14:18 42° ESE 21:14:35 43° ESE 21:19:35 10° NNE
Cosmos 1447 Rocket 4.5 21:09:00 10° N 21:15:23 73° E 21:17:47 40° SSE
Meteor 2-4 Rocket 4.3 21:12:27 10° N 21:17:46 39° ENE 21:18:54 35° E
Cosmos 1515 4.3 21:15:02 10° N 21:18:23 44° ENE 21:18:23 44° ENE
Cosmos 676 Rocket 4.2 21:14:02 13° SSW 21:18:47 71° WNW 21:24:08 10° NNE
Meteor 1-25 Rocket 4.2 21:17:53 28° SSW 21:20:56 80° W 21:26:34 10° N
Cosmos 1470 Rocket 3.9 21:19:31 35° SSW 21:21:14 64° W 21:25:37 10° N
Cosmos 192 4.4 21:16:50 10° NNW 21:21:45 71° WSW 21:22:57 50° S
ATLAS 5 CENTAUR R/B 3.8 21:19:28 10° N 21:21:54 22° NE 21:23:25 19° ENE
GP-B 4.4 21:24:18 10° NNW 21:28:24 37° W 21:30:41 22° SW
NOSS 3-2 (A) 3.3 21:25:57 10° SW 21:31:37 86° NW 21:38:08 10° NE
USA 267 4.2 21:25:44 10° NE 21:31:59 49° NNW 21:38:13 10° W
Cosmos 921 Rocket 3.0 21:30:29 10° NNW 21:34:40 66° WSW 21:34:50 65° WSW
NOSS 3-2 (C) 3.2 21:35:51 46° S 21:37:31 68° ESE 21:43:53 10° NE
ERS-1 Rocket 3.5 21:36:08 40° SSW 21:37:34 53° W 21:42:29 10° NNW
Cosmos 841 Rocket 4.2 21:36:26 10° N 21:41:22 40° ENE 21:42:00 38° E
Cosmos 540 Rocket 4.2 21:37:56 10° N 21:42:47 39° ENE 21:43:22 38° ENE
SL-16 R/B 2.4 21:37:39 10° NNW 21:43:16 58° ENE 21:44:17 51° ESE
Lacrosse 5 2.4 21:39:27 10° NW 21:44:26 51° NE 21:45:31 43° ENE
Cosmos 468 Rocket 3.9 21:39:43 10° NNW 21:45:04 90° ENE 21:45:45 69° SSE
Cosmos 1741 Rocket 3.8 21:48:23 70° S 21:48:57 81° ESE 21:54:15 10° NNE
Cosmos 2082 Rocket 3.7 21:47:27 10° WSW 21:52:37 35° NW 21:57:47 10° N
Cosmos 1570 Rocket 4.4 21:47:30 10° NNW 21:52:42 51° ENE 21:53:10 50° E
Cosmos 2219 Rocket 4.4 21:50:25 10° N 21:53:47 16° NE 21:56:38 11° ENE
Terra 2.3 22:00:02 47° WSW 22:00:28 48° W 22:05:06 10° NNW
Cosmos 2322 Rocket 2.1 21:59:57 10° NNW 22:05:39 71° ENE 22:06:13 66° ESE
Cosmos 2100 Rocket 3.9 22:05:35 58° SSW 22:06:54 85° W 22:13:05 10° N
USA 234 3.6 22:06:06 43° SSW 22:07:05 46° SW 22:13:19 10° WNW
Meteor 1-11 Rocket 3.9 22:09:09 54° E 22:09:09 54° E 22:14:31 10° NNE
Cosmos 1437 Rocket 4.1 22:08:02 10° NNW 22:10:50 35° WNW 22:10:50 35° WNW
Cosmos 1869 Rocket 3.9 22:13:01 63° NW 22:13:01 63° NW 22:17:04 10° N
SPOT 5 4.3 22:15:08 23° W 22:15:26 23° W 22:18:54 10° NW
Cosmos 2360 Rocket 2.6 22:14:17 10° NNW 22:19:50 51° ENE 22:20:19 50° ENE
ATLAS 3B R/B 2.9 22:21:12 49° E 22:21:12 49° E 22:26:55 10° NE
Geosat 3.9 22:20:48 85° N 22:20:48 85° N 22:25:44 10° NNW
Iridium 4 Rocket 3.6 22:21:44 56° NW 22:21:44 56° NW 22:25:24 10° N
Cosmos 2173 Rocket 4.1 22:21:10 54° SW 22:22:29 70° W 22:28:38 10° N
ALOS 2 3.8 22:27:44 35° NE 22:27:44 35° NE 22:30:59 10° N
SL-4 R/B 3.7 22:24:05 10° WNW 22:27:13 29° NNW 22:27:13 29° NNW
Cosmos 1725 Rocket 3.9 22:27:19 71° SE 22:27:46 74° E 22:34:05 10° NNE
Cosmos 1980 Rocket 4.0 22:23:54 10° NW 22:27:48 19° W 22:28:51 18° WSW
Cosmos 1763 Rocket 4.3 22:26:11 10° NW 22:31:09 42° WSW 22:31:09 42° WSW
SL-08 R/B 4.2 22:32:19 79° SE 22:32:38 82° E 22:38:44 10° N
Cosmos 1536 4.3 22:34:39 33° NNE 22:34:39 33° NNE 22:36:57 10° NNE
Cosmos 1666 4.5 22:37:32 29° N 22:37:32 29° N 22:39:30 10° N
Cosmos 2333 Rocket 3.4 22:35:02 10° N 22:40:14 33° NE 22:41:19 31° ENE
Cosmos 2016 Rocket 4.0 22:39:51 65° SW 22:40:41 75° W 22:47:05 10° N
Cosmos 2061 Rocket 4.0 22:41:22 66° SW 22:42:06 74° W 22:48:19 10° N
Lacrosse 4 Rocket 3.8 22:45:24 16° NE 22:45:24 16° NE 22:46:25 10° NE
Meteor 1-13 Rocket 4.3 22:37:59 10° NNW 22:43:23 66° W 22:43:23 66° W
MOS 1-B Rocket 4.0 22:40:26 10° N 22:46:03 62° WNW 22:46:44 57° WSW
Cosmos 1733 Rocket 4.0 22:50:59 45° N 22:50:59 45° N 22:54:05 10° N
Cosmos 1864 Rocket 4.5 22:53:23 67° WSW 22:53:55 71° W 23:00:10 10° N
Cosmos 1066 Rocket 4.2 22:48:17 10° N 22:53:46 82° N 22:53:46 82° N
Meteor 1-23 Rocket 4.2 22:50:01 10° N 22:55:43 85° NNE 22:55:43 85° NNE
CENTAUR R/B 3.4 22:51:50 19° WSW 22:56:07 47° NW 23:03:02 10° NNE
Thor Agena Rocket 3.8 22:52:15 10° N 22:57:00 64° NW 22:57:00 64° NW
Cosmos 967 Rocket 4.4 22:54:48 10° NW 23:01:03 73° WSW 23:01:03 73° WSW
Cosmos 44 4.2 22:57:59 10° NW 23:01:33 44° WNW 23:01:33 44° WNW
Cosmos 2233 Rocket 3.9 23:14:31 76° WSW 23:14:46 77° W 23:21:08 10° N
SL-16 R/B 3.9 23:22:40 10° NW 23:26:08 21° W 23:26:08 21° W
Lacrosse 5 3.7 23:22:41 10° WNW 23:24:41 21° WNW 23:24:41 21° WNW
Cosmos 1833 4.5 23:28:44 60° WNW 23:28:45 60° WNW 23:34:22 10° NNE
Cosmos 2322 3.8 23:24:28 10° NNW 23:29:31 71° NNW 23:29:31 71° NNW
Cosmos 2219 Rocket 2.3 23:33:01 10° NNW 23:38:19 73° NNE 23:38:19 73° NNE
Cosmos 1975 Rocket 4.3 23:39:20 10° N 23:42:25 41° NNE 23:42:25 41° NNE
Cosmos 2034 Rocket 4.4 23:43:53 50° E 23:43:55 51° E 23:49:59 10° NNE
Cosmos 1503 Rocket 4.4 23:45:55 61° NE 23:45:55 61° NE 23:50:23 10° NNE
Cosmos 1072 Rocket 4.4 23:46:51 79° ENE 23:46:51 79° ENE 23:52:48 10° N
Helios 1A 4.5 23:49:48 34° NNW 23:49:48 34° NNW 23:52:16 10° NNW
Cosmos 2322 Rocket 4.2 23:45:23 10° WNW 23:48:01 17° W 23:48:01 17° W
SL-16 R/B 4.4 23:46:15 15° E 23:49:40 23° ENE 23:54:24 10° N
Cosmos 1891 Rocket 4.4 23:53:06 85° SE 23:53:13 87° E 23:59:43 10° N
CZ-2D R/B 4.2 23:51:29 10° NE 23:54:41 16° E 23:54:54 16° E
